BEIDOU-3 M19 (C41)

Last updated on Mon Jun 22 2026 00:03:31 GMT+0000 (Coordinated Universal Time)

1 44864U 19090A 26172.49311008 -.00000083 00000+0 00000+0 0 9999 2 44864 56.5623 62.6475 0017633 298.0530 242.7330 1.86231615 44318
UTC large
Height (km)
Speed (km/s)
/
Latitude / Longitude
Inclination (degrees)
Orbital Period (minutes)
Azimuth
Elevation
Range (km)
Doppler Factor

Next 0 passes for location: London (51.5072 / 0.1276)

No passes found over London.
BEIDOU-3 M19 (C41)